Time,TemperatureF,DewpointF,PressureIn,WindDirection,WindDirectionDegrees,WindSpeedMPH,WindSpeedGustMPH,Humidity,HourlyPrecipIn,Conditions,Clouds,dailyrainin,SoftwareType,DateUTC
2013-03-07 00:01:00,10.0,2.7,30.33,SSW,202,0.0,0.0,72,0.00,,,0.13,WUHU21623XXSP,2013-03-07 06:01:00,
2013-03-07 00:06:00,9.3,2.1,30.34,SSW,202,0.0,0.0,72,0.00,,,0.00,WUHU21623XXSP,2013-03-07 06:06:00,
2013-03-07 00:11:00,9.1,1.9,30.33,SSW,202,0.0,0.0,72,0.00,,,0.00,WUHU21623XXSP,2013-03-07 06:11:00,
2013-03-07 00:16:00,9.1,1.9,30.34,NNE,22,0.0,0.0,72,0.00,,,0.00,WUHU21623XXSP,2013-03-07 06:16:00,
2013-03-07 00:21:00,9.1,1.9,30.33,North,0,0.0,0.0,72,0.00,,,0.00,WUHU21623XXSP,2013-03-07 06:21:00,
2013-03-07 00:26:00,8.8,1.8,30.34,North,0,0.0,0.0,72,0.00,,,0.00,WUHU21623XXSP,2013-03-07 06:26:00,
2013-03-07 00:31:00,8.8,1.6,30.33,North,0,0.0,0.0,72,0.00,,,0.00,WUHU21623XXSP,2013-03-07 06:31:00,
2013-03-07 00:36:00,8.6,1.7,30.33,North,0,0.0,0.0,73,0.00,,,0.00,WUHU21623XXSP,2013-03-07 06:36:00,
2013-03-07 00:41:00,8.4,1.3,30.33,SW,225,0.0,0.0,72,0.00,,,0.00,WUHU21623XXSP,2013-03-07 06:41:00,
2013-03-07 00:46:00,8.4,1.5,30.33,SSW,202,0.0,0.0,73,0.00,,,0.00,WUHU21623XXSP,2013-03-07 06:46:00,
2013-03-07 00:51:00,8.2,1.4,30.33,SSW,202,0.0,0.0,73,0.00,,,0.00,WUHU21623XXSP,2013-03-07 06:51:00,
2013-03-07 00:56:00,8.1,1.2,30.33,SSW,202,0.0,0.0,73,0.00,,,0.00,WUHU21623XXSP,2013-03-07 06:56:00,
2013-03-07 01:01:00,7.9,1.0,30.33,SSW,202,0.0,0.0,73,0.00,,,0.00,WUHU21623XXSP,2013-03-07 07:01:00,
2013-03-07 01:06:00,7.9,1.0,30.34,SSW,202,0.0,0.0,73,0.00,,,0.00,WUHU21623XXSP,2013-03-07 07:06:00,
2013-03-07 01:11:00,7.7,0.8,30.33,SSW,202,0.0,0.0,73,0.00,,,0.00,WUHU21623XXSP,2013-03-07 07:11:00,
2013-03-07 01:16:00,7.5,0.6,30.33,SSW,202,0.0,0.0,73,0.00,,,0.00,WUHU21623XXSP,2013-03-07 07:16:00,
2013-03-07 01:21:00,7.5,0.6,30.33,SSW,202,0.0,0.0,73,0.00,,,0.00,WUHU21623XXSP,2013-03-07 07:21:00,
2013-03-07 01:26:00,7.2,0.3,30.33,SW,225,0.0,0.0,73,0.00,,,0.00,WUHU21623XXSP,2013-03-07 07:26:00,
2013-03-07 01:31:00,7.0,0.1,30.34,SW,225,0.0,0.0,73,0.00,,,0.00,WUHU21623XXSP,2013-03-07 07:31:00,
2013-03-07 01:36:00,7.0,0.1,30.34,SW,225,0.0,0.0,73,0.00,,,0.00,WUHU21623XXSP,2013-03-07 07:36:00,
2013-03-07 01:42:00,7.0,0.1,30.34,North,0,0.0,0.0,73,0.00,,,0.00,WUHU21623XXSP,2013-03-07 07:42:00,
2013-03-07 01:48:00,6.6,-0.3,30.34,West,270,0.0,0.0,73,0.00,,,0.00,WUHU21623XXSP,2013-03-07 07:48:00,
2013-03-07 01:53:00,6.6,-0.3,30.34,West,270,0.0,0.0,73,0.00,,,0.00,WUHU21623XXSP,2013-03-07 07:53:00,
2013-03-07 01:58:00,6.6,-0.3,30.34,West,270,0.0,0.0,73,0.00,,,0.00,WUHU21623XXSP,2013-03-07 07:58:00,
2013-03-07 02:03:00,6.6,-0.3,30.35,West,270,0.0,0.0,73,0.00,,,0.00,WUHU21623XXSP,2013-03-07 08:03:00,
2013-03-07 02:08:00,6.6,-0.3,30.35,West,270,0.0,0.0,73,0.00,,,0.00,WUHU21623XXSP,2013-03-07 08:08:00,
2013-03-07 02:13:00,6.6,-0.3,30.34,WNW,292,0.0,0.0,73,0.00,,,0.00,WUHU21623XXSP,2013-03-07 08:13:00,
2013-03-07 02:18:00,6.4,-0.4,30.34,WSW,247,0.0,0.0,73,0.00,,,0.00,WUHU21623XXSP,2013-03-07 08:18:00,
2013-03-07 02:23:00,6.4,-0.4,30.35,WNW,292,0.0,0.0,73,0.00,,,0.00,WUHU21623XXSP,2013-03-07 08:23:00,
2013-03-07 02:28:00,6.4,-0.4,30.34,WNW,292,0.0,0.0,73,0.00,,,0.00,WUHU21623XXSP,2013-03-07 08:28:00,
2013-03-07 02:33:00,6.6,-0.3,30.35,WNW,292,0.0,0.0,73,0.00,,,0.00,WUHU21623XXSP,2013-03-07 08:33:00,
2013-03-07 02:38:00,6.6,-0.3,30.35,WNW,292,0.0,0.0,73,0.00,,,0.00,WUHU21623XXSP,2013-03-07 08:38:00,
2013-03-07 02:43:00,6.6,-0.3,30.34,WNW,292,0.0,0.0,73,0.00,,,0.00,WUHU21623XXSP,2013-03-07 08:43:00,
2013-03-07 02:48:00,6.6,-0.3,30.34,WNW,292,0.0,0.0,73,0.00,,,0.00,WUHU21623XXSP,2013-03-07 08:48:00,
2013-03-07 02:53:00,6.4,-0.4,30.34,WNW,292,0.0,0.0,73,0.00,,,0.00,WUHU21623XXSP,2013-03-07 08:53:00,
2013-03-07 02:58:00,6.4,-0.4,30.34,WSW,247,0.0,0.0,73,0.00,,,0.00,WUHU21623XXSP,2013-03-07 08:58:00,
2013-03-07 03:03:00,6.4,-0.4,30.34,SW,225,0.0,0.0,73,0.00,,,0.00,WUHU21623XXSP,2013-03-07 09:03:00,
2013-03-07 03:08:00,6.4,-0.4,30.34,SW,225,0.0,0.0,73,0.00,,,0.00,WUHU21623XXSP,2013-03-07 09:08:00,
2013-03-07 03:13:00,6.4,-0.1,30.34,North,0,0.0,0.0,74,0.00,,,0.00,WUHU21623XXSP,2013-03-07 09:13:00,
2013-03-07 03:18:00,6.6,0.0,30.34,NNW,337,0.0,0.0,74,0.00,,,0.00,WUHU21623XXSP,2013-03-07 09:18:00,
2013-03-07 03:24:00,6.6,0.0,30.34,NNW,337,0.0,0.0,74,0.00,,,0.00,WUHU21623XXSP,2013-03-07 09:24:00,
2013-03-07 03:29:00,6.6,0.0,30.34,NNW,337,0.0,0.0,74,0.00,,,0.00,WUHU21623XXSP,2013-03-07 09:29:00,
2013-03-07 03:34:00,6.6,0.0,30.34,NNW,337,0.0,0.0,74,0.00,,,0.00,WUHU21623XXSP,2013-03-07 09:34:00,
2013-03-07 03:40:00,6.6,0.0,30.34,SW,225,0.0,0.0,74,0.00,,,0.00,WUHU21623XXSP,2013-03-07 09:40:00,
2013-03-07 03:45:00,6.4,-0.1,30.34,SW,225,0.0,0.0,74,0.00,,,0.00,WUHU21623XXSP,2013-03-07 09:45:00,
2013-03-07 03:50:00,6.4,-0.1,30.34,SW,225,0.0,0.0,74,0.00,,,0.00,WUHU21623XXSP,2013-03-07 09:50:00,
2013-03-07 03:55:00,6.4,-0.1,30.34,SW,225,0.0,0.0,74,0.00,,,0.00,WUHU21623XXSP,2013-03-07 09:55:00,
2013-03-07 04:00:00,6.4,-0.1,30.34,SW,225,0.0,0.0,74,0.00,,,0.00,WUHU21623XXSP,2013-03-07 10:00:00,
2013-03-07 04:05:00,6.3,-0.3,30.33,SW,225,0.0,0.0,74,0.00,,,0.00,WUHU21623XXSP,2013-03-07 10:05:00,
2013-03-07 04:10:00,6.3,-0.3,30.34,SW,225,0.0,0.0,74,0.00,,,0.00,WUHU21623XXSP,2013-03-07 10:10:00,
2013-03-07 04:15:00,6.1,-0.5,30.34,SW,225,0.0,0.0,74,0.00,,,0.00,WUHU21623XXSP,2013-03-07 10:15:00,
2013-03-07 04:20:00,6.1,-0.5,30.34,NW,315,0.0,0.0,74,0.00,,,0.00,WUHU21623XXSP,2013-03-07 10:20:00,
2013-03-07 04:25:00,5.9,-0.7,30.34,North,0,0.0,0.0,74,0.00,,,0.00,WUHU21623XXSP,2013-03-07 10:25:00,
2013-03-07 04:30:00,5.9,-0.7,30.34,NNE,22,0.0,0.0,74,0.00,,,0.00,WUHU21623XXSP,2013-03-07 10:30:00,
2013-03-07 04:35:00,5.7,-0.9,30.34,NNE,22,0.0,0.0,74,0.00,,,0.00,WUHU21623XXSP,2013-03-07 10:35:00,
2013-03-07 04:40:00,5.5,-1.0,30.34,NNE,22,0.0,0.0,74,0.00,,,0.00,WUHU21623XXSP,2013-03-07 10:40:00,
2013-03-07 04:46:00,5.5,-1.0,30.33,NNE,22,0.0,0.0,74,0.00,,,0.00,WUHU21623XXSP,2013-03-07 10:46:00,
2013-03-07 04:51:00,5.5,-1.0,30.33,NNE,22,0.0,0.0,74,0.00,,,0.00,WUHU21623XXSP,2013-03-07 10:51:00,
2013-03-07 04:56:00,5.5,-1.0,30.34,NNE,22,0.0,0.0,74,0.00,,,0.00,WUHU21623XXSP,2013-03-07 10:56:00,
2013-03-07 05:01:00,5.5,-1.0,30.34,NNE,22,0.0,0.0,74,0.00,,,0.00,WUHU21623XXSP,2013-03-07 11:01:00,
2013-03-07 05:06:00,5.5,-1.0,30.34,NNE,22,0.0,0.0,74,0.00,,,0.00,WUHU21623XXSP,2013-03-07 11:06:00,
2013-03-07 05:11:00,5.5,-1.0,30.34,North,0,0.0,0.0,74,0.00,,,0.00,WUHU21623XXSP,2013-03-07 11:11:00,
2013-03-07 05:16:00,5.5,-1.0,30.34,SSE,157,0.0,0.0,74,0.00,,,0.00,WUHU21623XXSP,2013-03-07 11:16:00,
2013-03-07 05:21:00,5.5,-1.0,30.33,SSE,157,0.0,0.0,74,0.00,,,0.00,WUHU21623XXSP,2013-03-07 11:21:00,
2013-03-07 05:26:00,5.4,-1.2,30.34,SSE,157,0.0,0.0,74,0.00,,,0.00,WUHU21623XXSP,2013-03-07 11:26:00,
2013-03-07 05:31:00,5.4,-1.2,30.34,SSE,157,0.0,0.0,74,0.00,,,0.00,WUHU21623XXSP,2013-03-07 11:31:00,
2013-03-07 05:36:00,5.5,-1.0,30.34,SSE,157,0.0,0.0,74,0.00,,,0.00,WUHU21623XXSP,2013-03-07 11:36:00,
2013-03-07 05:41:00,5.5,-1.0,30.34,SSE,157,0.0,0.0,74,0.00,,,0.00,WUHU21623XXSP,2013-03-07 11:41:00,
2013-03-07 05:46:00,5.5,-0.8,30.34,SSE,157,0.0,0.0,75,0.00,,,0.00,WUHU21623XXSP,2013-03-07 11:46:00,
2013-03-07 05:51:00,5.5,-0.8,30.34,SSE,157,0.0,0.0,75,0.00,,,0.00,WUHU21623XXSP,2013-03-07 11:51:00,
2013-03-07 05:56:00,5.5,-0.8,30.33,SSE,157,0.0,0.0,75,0.00,,,0.00,WUHU21623XXSP,2013-03-07 11:56:00,
2013-03-07 06:01:00,5.5,-0.8,30.33,SSE,157,0.0,0.0,75,0.00,,,0.00,WUHU21623XXSP,2013-03-07 12:01:00,
2013-03-07 06:06:00,5.5,-0.8,30.33,SSE,157,0.0,0.0,75,0.00,,,0.00,WUHU21623XXSP,2013-03-07 12:06:00,
2013-03-07 06:11:00,5.5,-0.8,30.33,SSE,157,0.0,0.0,75,0.00,,,0.00,WUHU21623XXSP,2013-03-07 12:11:00,
2013-03-07 06:16:00,5.7,-0.6,30.33,SSE,157,0.0,0.0,75,0.00,,,0.00,WUHU21623XXSP,2013-03-07 12:16:00,
2013-03-07 06:21:00,5.7,-0.6,30.33,SSE,157,0.0,0.0,75,0.00,,,0.00,WUHU21623XXSP,2013-03-07 12:21:00,
2013-03-07 06:26:00,5.7,-0.6,30.33,SSE,157,0.0,0.0,75,0.00,,,0.00,WUHU21623XXSP,2013-03-07 12:26:00,
2013-03-07 06:32:00,5.7,-0.6,30.32,NE,45,0.0,0.0,75,0.00,,,0.00,WUHU21623XXSP,2013-03-07 12:32:00,
2013-03-07 06:37:00,5.7,-0.6,30.33,NE,45,0.0,0.0,75,0.00,,,0.00,WUHU21623XXSP,2013-03-07 12:37:00,
2013-03-07 06:42:00,5.5,-0.8,30.33,NNE,22,0.0,0.0,75,0.00,,,0.00,WUHU21623XXSP,2013-03-07 12:42:00,
2013-03-07 06:47:00,5.5,-0.8,30.33,NNE,22,0.0,0.0,75,0.00,,,0.00,WUHU21623XXSP,2013-03-07 12:47:00,
2013-03-07 06:52:00,5.5,-0.8,30.33,NE,45,0.0,0.0,75,0.00,,,0.00,WUHU21623XXSP,2013-03-07 12:52:00,
2013-03-07 06:57:00,5.5,-0.8,30.32,NE,45,0.0,0.0,75,0.00,,,0.00,WUHU21623XXSP,2013-03-07 12:57:00,
2013-03-07 07:02:00,5.5,-0.8,30.32,ENE,67,0.0,0.0,75,0.00,,,0.00,WUHU21623XXSP,2013-03-07 13:02:00,
2013-03-07 07:07:00,5.7,-0.6,30.33,ENE,67,0.0,0.0,75,0.00,,,0.00,WUHU21623XXSP,2013-03-07 13:07:00,
2013-03-07 07:12:00,5.9,-0.4,30.32,ENE,67,0.0,0.0,75,0.00,,,0.00,WUHU21623XXSP,2013-03-07 13:12:00,
2013-03-07 07:17:00,5.9,-0.4,30.32,ENE,67,0.0,0.0,75,0.00,,,0.00,WUHU21623XXSP,2013-03-07 13:17:00,
2013-03-07 07:22:00,5.9,-0.4,30.31,ENE,67,0.0,0.0,75,0.00,,,0.00,WUHU21623XXSP,2013-03-07 13:22:00,
2013-03-07 07:27:00,6.1,-0.2,30.31,ENE,67,0.0,0.0,75,0.00,,,0.00,WUHU21623XXSP,2013-03-07 13:27:00,
2013-03-07 07:32:00,6.1,-0.2,30.31,NE,45,0.0,0.0,75,0.00,,,0.00,WUHU21623XXSP,2013-03-07 13:32:00,
2013-03-07 07:37:00,6.4,0.1,30.30,NE,45,0.0,0.0,75,0.00,,,0.00,WUHU21623XXSP,2013-03-07 13:37:00,
2013-03-07 07:42:00,6.6,0.3,30.30,NE,45,0.0,0.0,75,0.00,,,0.00,WUHU21623XXSP,2013-03-07 13:42:00,
2013-03-07 07:47:00,7.0,0.7,30.30,ENE,67,0.0,0.0,75,0.00,,,0.00,WUHU21623XXSP,2013-03-07 13:47:00,
2013-03-07 07:53:00,7.3,1.0,30.31,ENE,67,0.0,0.0,75,0.00,,,0.00,WUHU21623XXSP,2013-03-07 13:53:00,
2013-03-07 07:58:00,7.7,1.7,30.31,NE,45,0.0,0.0,76,0.00,,,0.00,WUHU21623XXSP,2013-03-07 13:58:00,
2013-03-07 08:03:00,8.2,2.2,30.31,ENE,67,2.0,2.0,76,0.00,,,0.00,WUHU21623XXSP,2013-03-07 14:03:00,
2013-03-07 08:08:00,8.6,2.6,30.31,ENE,59,1.8,3.6,76,0.00,,,0.00,WUHU21623XXSP,2013-03-07 14:08:00,
2013-03-07 08:13:00,9.1,3.1,30.32,NE,51,1.3,3.6,76,0.00,,,0.00,WUHU21623XXSP,2013-03-07 14:13:00,
2013-03-07 08:18:00,9.5,3.4,30.33,NNE,23,1.5,2.2,76,0.00,,,0.00,WUHU21623XXSP,2013-03-07 14:18:00,
2013-03-07 08:23:00,10.0,4.2,30.33,NE,45,0.0,2.0,77,0.00,,,0.00,WUHU21623XXSP,2013-03-07 14:23:00,
2013-03-07 08:28:00,10.6,4.7,30.33,NE,45,0.0,1.3,77,0.00,,,0.00,WUHU21623XXSP,2013-03-07 14:28:00,
2013-03-07 08:33:00,11.1,5.2,30.33,NNE,22,0.0,0.0,77,0.00,,,0.00,WUHU21623XXSP,2013-03-07 14:33:00,
2013-03-07 08:38:00,11.8,5.9,30.34,NNW,337,0.0,0.9,77,0.00,,,0.00,WUHU21623XXSP,2013-03-07 14:38:00,
2013-03-07 08:44:00,12.2,6.3,30.35,NNW,337,0.0,1.6,77,0.00,,,0.00,WUHU21623XXSP,2013-03-07 14:44:00,
2013-03-07 08:49:00,12.7,6.8,30.35,WNW,292,0.0,1.6,77,0.00,,,0.00,WUHU21623XXSP,2013-03-07 14:49:00,
2013-03-07 08:54:00,13.3,7.4,30.35,NNE,22,1.2,1.6,77,0.00,,,0.00,WUHU21623XXSP,2013-03-07 14:54:00,
2013-03-07 08:59:00,13.6,7.7,30.36,NNW,337,0.0,1.6,77,0.00,,,0.00,WUHU21623XXSP,2013-03-07 14:59:00,
2013-03-07 09:04:00,14.2,8.3,30.35,NNE,20,1.2,2.2,77,0.00,,,0.00,WUHU21623XXSP,2013-03-07 15:04:00,
2013-03-07 09:09:00,14.7,8.8,30.35,NE,45,1.8,2.7,77,0.00,,,0.00,WUHU21623XXSP,2013-03-07 15:09:00,
2013-03-07 09:14:00,15.4,9.3,30.35,North,0,2.5,2.7,77,0.00,,,0.00,WUHU21623XXSP,2013-03-07 15:14:00,
2013-03-07 09:19:00,15.8,9.8,30.36,North,11,1.5,3.1,77,0.00,,,0.00,WUHU21623XXSP,2013-03-07 15:19:00,
2013-03-07 09:24:00,16.5,10.5,30.35,ENE,67,3.1,3.1,77,0.00,,,0.00,WUHU21623XXSP,2013-03-07 15:24:00,
2013-03-07 09:29:00,17.2,11.5,30.35,ENE,67,2.5,3.4,78,0.00,,,0.00,WUHU21623XXSP,2013-03-07 15:29:00,
2013-03-07 09:34:00,18.1,12.3,30.35,ENE,67,2.5,3.6,78,0.00,,,0.00,WUHU21623XXSP,2013-03-07 15:34:00,
2013-03-07 09:39:00,18.7,12.8,30.34,ENE,67,0.9,3.6,78,0.00,,,0.00,WUHU21623XXSP,2013-03-07 15:39:00,
2013-03-07 09:44:00,19.6,13.7,30.35,ENE,65,1.1,2.2,78,0.00,,,0.00,WUHU21623XXSP,2013-03-07 15:44:00,
2013-03-07 09:49:00,19.9,14.1,30.35,SSE,151,1.7,2.5,78,0.00,,,0.00,WUHU21623XXSP,2013-03-07 15:49:00,
2013-03-07 09:54:00,20.8,15.0,30.34,SSE,157,1.6,2.5,78,0.00,,,0.00,WUHU21623XXSP,2013-03-07 15:54:00,
2013-03-07 09:59:00,21.4,15.5,30.35,ESE,114,1.1,2.2,78,0.00,,,0.00,WUHU21623XXSP,2013-03-07 15:59:00,
2013-03-07 10:04:00,21.9,16.1,30.35,NE,53,2.0,2.7,78,0.00,,,0.00,WUHU21623XXSP,2013-03-07 16:04:00,
2013-03-07 10:09:00,22.8,17.3,30.36,NE,45,2.2,3.1,79,0.00,,,0.00,WUHU21623XXSP,2013-03-07 16:09:00,
2013-03-07 10:14:00,23.7,17.9,30.35,ENE,77,1.2,3.1,78,0.00,,,0.00,WUHU21623XXSP,2013-03-07 16:14:00,
2013-03-07 10:19:00,24.4,18.6,30.35,SE,135,2.2,2.9,78,0.00,,,0.00,WUHU21623XXSP,2013-03-07 16:19:00,
2013-03-07 10:24:00,25.0,18.8,30.35,SSE,157,3.4,5.1,77,0.00,,,0.00,WUHU21623XXSP,2013-03-07 16:24:00,
2013-03-07 10:29:00,25.5,18.9,30.35,SE,138,2.4,5.1,76,0.00,,,0.00,WUHU21623XXSP,2013-03-07 16:29:00,
2013-03-07 10:34:00,26.2,19.3,30.35,SSE,151,3.0,5.4,75,0.02,,,0.02,WUHU21623XXSP,2013-03-07 16:34:00,
2013-03-07 10:39:00,26.8,19.5,30.35,SE,131,2.9,5.4,74,0.02,,,0.02,WUHU21623XXSP,2013-03-07 16:39:00,
2013-03-07 10:44:00,27.1,19.6,30.35,SSE,156,3.6,5.4,73,0.02,,,0.02,WUHU21623XXSP,2013-03-07 16:44:00,
2013-03-07 10:49:00,27.7,20.1,30.36,SSW,202,5.1,6.5,73,0.02,,,0.02,WUHU21623XXSP,2013-03-07 16:49:00,
2013-03-07 10:54:00,28.0,19.9,30.35,South,190,8.5,13.9,71,0.02,,,0.02,WUHU21623XXSP,2013-03-07 16:54:00,
2013-03-07 10:59:00,28.2,20.1,30.35,South,169,4.4,13.9,71,0.02,,,0.02,WUHU21623XXSP,2013-03-07 16:59:00,
2013-03-07 11:04:00,28.6,20.1,30.35,SSE,156,5.4,11.4,70,0.02,,,0.02,WUHU21623XXSP,2013-03-07 17:04:00,
2013-03-07 11:09:00,28.8,19.9,30.34,SE,135,8.3,10.3,69,0.02,,,0.02,WUHU21623XXSP,2013-03-07 17:09:00,
2013-03-07 11:15:00,29.1,20.2,30.34,South,174,5.2,10.3,69,0.02,,,0.02,WUHU21623XXSP,2013-03-07 17:15:00,
2013-03-07 11:20:00,29.3,20.0,30.34,South,169,5.6,9.6,68,0.02,,,0.02,WUHU21623XXSP,2013-03-07 17:20:00,
2013-03-07 11:25:00,29.7,20.4,30.34,SE,142,3.3,9.6,68,0.02,,,0.02,WUHU21623XXSP,2013-03-07 17:25:00,
2013-03-07 11:30:00,30.0,20.3,30.34,SSE,154,4.3,6.0,67,0.02,,,0.02,WUHU21623XXSP,2013-03-07 17:30:00,
2013-03-07 11:35:00,30.4,20.7,30.34,SE,135,4.0,8.1,67,0.02,,,0.04,WUHU21623XXSP,2013-03-07 17:35:00,
2013-03-07 11:40:00,30.4,20.3,30.34,SE,137,5.8,8.5,66,0.02,,,0.04,WUHU21623XXSP,2013-03-07 17:40:00,
2013-03-07 11:45:00,30.4,20.3,30.34,SSE,157,4.7,10.7,66,0.02,,,0.04,WUHU21623XXSP,2013-03-07 17:45:00,
2013-03-07 11:50:00,30.6,20.1,30.34,ESE,112,5.8,10.7,65,0.02,,,0.04,WUHU21623XXSP,2013-03-07 17:50:00,
2013-03-07 11:55:00,30.7,20.3,30.34,SSE,158,3.4,8.3,65,0.02,,,0.04,WUHU21623XXSP,2013-03-07 17:55:00,
2013-03-07 12:00:00,31.3,20.8,30.34,South,180,2.0,8.7,65,0.02,,,0.04,WUHU21623XXSP,2013-03-07 18:00:00,
2013-03-07 12:05:00,31.8,21.4,30.34,SSE,157,5.8,12.3,65,0.02,,,0.04,WUHU21623XXSP,2013-03-07 18:05:00,
2013-03-07 12:10:00,31.8,21.0,30.34,SSE,150,6.1,12.3,64,0.02,,,0.04,WUHU21623XXSP,2013-03-07 18:10:00,
2013-03-07 12:15:00,31.6,20.5,30.34,SSE,156,5.9,8.9,63,0.02,,,0.04,WUHU21623XXSP,2013-03-07 18:15:00,
2013-03-07 12:20:00,31.8,20.7,30.34,South,172,4.2,8.9,63,0.02,,,0.04,WUHU21623XXSP,2013-03-07 18:20:00,
2013-03-07 12:25:00,32.4,21.2,30.34,SE,135,7.4,10.5,63,0.02,,,0.04,WUHU21623XXSP,2013-03-07 18:25:00,
2013-03-07 12:30:00,32.2,20.6,30.34,SSE,152,6.2,10.7,62,0.02,,,0.04,WUHU21623XXSP,2013-03-07 18:30:00,
2013-03-07 12:35:00,32.2,20.6,30.33,South,170,4.9,10.7,62,0.00,,,0.04,WUHU21623XXSP,2013-03-07 18:35:00,
2013-03-07 12:40:00,32.2,20.6,30.33,SSE,157,4.9,9.6,62,0.00,,,0.04,WUHU21623XXSP,2013-03-07 18:40:00,
2013-03-07 12:45:00,32.5,21.0,30.33,SSE,163,4.3,9.6,62,0.00,,,0.04,WUHU21623XXSP,2013-03-07 18:45:00,
2013-03-07 12:50:00,32.7,21.1,30.33,SSE,165,4.6,10.5,62,0.00,,,0.04,WUHU21623XXSP,2013-03-07 18:50:00,
2013-03-07 12:55:00,32.9,20.9,30.33,South,180,5.8,10.5,61,0.00,,,0.04,WUHU21623XXSP,2013-03-07 18:55:00,
2013-03-07 13:00:00,33.3,21.6,30.32,SE,135,8.3,10.5,62,0.00,,,0.04,WUHU21623XXSP,2013-03-07 19:00:00,
2013-03-07 13:05:00,33.3,20.9,30.32,SE,146,4.7,10.5,60,0.00,,,0.04,WUHU21623XXSP,2013-03-07 19:05:00,
2013-03-07 13:10:00,33.1,20.7,30.32,SE,145,4.4,9.2,60,0.00,,,0.04,WUHU21623XXSP,2013-03-07 19:10:00,
2013-03-07 13:15:00,32.7,20.4,30.32,SSE,156,5.3,9.2,60,0.00,,,0.04,WUHU21623XXSP,2013-03-07 19:15:00,
2013-03-07 13:20:00,32.9,20.9,30.31,South,183,8.9,14.5,61,0.00,,,0.04,WUHU21623XXSP,2013-03-07 19:20:00,
2013-03-07 13:25:00,33.3,21.3,30.31,SE,135,6.9,14.5,61,0.00,,,0.04,WUHU21623XXSP,2013-03-07 19:25:00,
2013-03-07 13:30:00,33.1,20.7,30.30,SE,135,5.4,14.1,60,0.00,,,0.04,WUHU21623XXSP,2013-03-07 19:30:00,
2013-03-07 13:35:00,33.3,20.5,30.30,SSE,162,7.2,8.9,59,0.00,,,0.04,WUHU21623XXSP,2013-03-07 19:35:00,
2013-03-07 13:40:00,33.4,20.6,30.31,SSE,168,7.3,10.7,59,0.00,,,0.04,WUHU21623XXSP,2013-03-07 19:40:00,
2013-03-07 13:45:00,33.8,21.4,30.30,South,180,8.3,10.7,60,0.00,,,0.04,WUHU21623XXSP,2013-03-07 19:45:00,
2013-03-07 13:50:00,34.2,21.3,30.30,SE,135,7.2,8.7,59,0.00,,,0.04,WUHU21623XXSP,2013-03-07 19:50:00,
2013-03-07 13:56:00,34.0,21.1,30.30,SSE,159,7.1,12.3,59,0.00,,,0.04,WUHU21623XXSP,2013-03-07 19:56:00,
2013-03-07 14:01:00,34.0,20.7,30.30,South,180,8.1,12.3,58,0.00,,,0.04,WUHU21623XXSP,2013-03-07 20:01:00,
2013-03-07 14:06:00,34.2,21.3,30.30,South,180,8.9,11.9,59,0.00,,,0.04,WUHU21623XXSP,2013-03-07 20:06:00,
2013-03-07 14:11:00,34.3,21.5,30.30,SSE,155,3.7,11.9,59,0.00,,,0.04,WUHU21623XXSP,2013-03-07 20:11:00,
2013-03-07 14:16:00,34.3,21.1,30.30,South,172,5.5,8.7,58,0.00,,,0.04,WUHU21623XXSP,2013-03-07 20:16:00,
2013-03-07 14:21:00,34.3,21.1,30.29,SSE,157,8.5,9.6,58,0.00,,,0.04,WUHU21623XXSP,2013-03-07 20:21:00,
2013-03-07 14:26:00,34.3,21.1,30.29,South,180,6.0,9.8,58,0.00,,,0.04,WUHU21623XXSP,2013-03-07 20:26:00,
2013-03-07 14:31:00,34.3,20.6,30.29,SSE,157,4.9,9.8,57,0.00,,,0.04,WUHU21623XXSP,2013-03-07 20:31:00,
2013-03-07 14:36:00,34.2,20.4,30.29,SSE,157,6.7,8.3,57,0.00,,,0.04,WUHU21623XXSP,2013-03-07 20:36:00,
2013-03-07 14:41:00,34.0,20.7,30.30,SSW,194,7.0,11.0,58,0.00,,,0.04,WUHU21623XXSP,2013-03-07 20:41:00,
2013-03-07 14:46:00,34.2,20.9,30.29,SSE,155,4.5,11.0,58,0.00,,,0.04,WUHU21623XXSP,2013-03-07 20:46:00,
2013-03-07 14:51:00,34.3,21.1,30.29,ESE,112,5.1,8.5,58,0.00,,,0.04,WUHU21623XXSP,2013-03-07 20:51:00,
2013-03-07 14:56:00,34.3,21.1,30.29,South,181,4.1,8.5,58,0.00,,,0.04,WUHU21623XXSP,2013-03-07 20:56:00,
2013-03-07 15:01:00,34.5,21.2,30.29,SSE,154,2.3,8.3,58,0.00,,,0.04,WUHU21623XXSP,2013-03-07 21:01:00,
2013-03-07 15:06:00,34.7,21.0,30.29,SSE,148,4.2,8.1,57,0.00,,,0.04,WUHU21623XXSP,2013-03-07 21:06:00,
2013-03-07 15:11:00,34.5,20.4,30.29,SE,138,5.8,10.7,56,0.00,,,0.04,WUHU21623XXSP,2013-03-07 21:11:00,
2013-03-07 15:16:00,34.3,20.2,30.29,South,180,3.1,10.7,56,0.00,,,0.04,WUHU21623XXSP,2013-03-07 21:16:00,
2013-03-07 15:21:00,34.3,20.2,30.29,SSE,150,4.5,7.6,56,0.00,,,0.04,WUHU21623XXSP,2013-03-07 21:21:00,
2013-03-07 15:26:00,34.3,20.2,30.28,SSE,149,4.2,7.8,56,0.00,,,0.04,WUHU21623XXSP,2013-03-07 21:26:00,
2013-03-07 15:31:00,34.5,20.4,30.28,SE,135,5.8,9.4,56,0.00,,,0.04,WUHU21623XXSP,2013-03-07 21:31:00,
2013-03-07 15:36:00,34.3,20.2,30.29,SSE,147,5.1,10.3,56,0.00,,,0.04,WUHU21623XXSP,2013-03-07 21:36:00,
2013-03-07 15:41:00,34.3,20.2,30.28,SSE,157,5.7,10.3,56,0.00,,,0.04,WUHU21623XXSP,2013-03-07 21:41:00,
2013-03-07 15:46:00,34.5,20.4,30.28,SE,135,3.6,9.8,56,0.00,,,0.04,WUHU21623XXSP,2013-03-07 21:46:00,
2013-03-07 15:51:00,34.7,20.6,30.29,SSE,166,4.8,9.8,56,0.00,,,0.04,WUHU21623XXSP,2013-03-07 21:51:00,
2013-03-07 15:57:00,34.7,20.6,30.28,SE,145,4.7,7.8,56,0.00,,,0.04,WUHU21623XXSP,2013-03-07 21:57:00,
2013-03-07 16:02:00,34.3,20.2,30.29,SSE,150,4.4,6.9,56,0.00,,,0.04,WUHU21623XXSP,2013-03-07 22:02:00,
2013-03-07 16:07:00,34.3,20.2,30.28,SE,140,3.5,7.2,56,0.00,,,0.04,WUHU21623XXSP,2013-03-07 22:07:00,
2013-03-07 16:12:00,34.3,20.2,30.28,SE,135,3.8,7.2,56,0.00,,,0.04,WUHU21623XXSP,2013-03-07 22:12:00,
2013-03-07 16:17:00,34.3,20.6,30.28,SE,138,3.6,6.3,57,0.00,,,0.04,WUHU21623XXSP,2013-03-07 22:17:00,
2013-03-07 16:22:00,34.3,20.6,30.28,SE,133,5.2,8.7,56,0.00,,,0.04,WUHU21623XXSP,2013-03-07 22:22:00,
2013-03-07 16:27:00,34.0,19.8,30.28,SSE,164,2.4,9.6,56,0.00,,,0.04,WUHU21623XXSP,2013-03-07 22:27:00,
2013-03-07 16:33:00,34.0,19.8,30.28,SSE,157,6.9,9.6,56,0.00,,,0.04,WUHU21623XXSP,2013-03-07 22:33:00,
2013-03-07 16:38:00,33.8,20.1,30.27,SSE,155,3.4,6.9,57,0.00,,,0.04,WUHU21623XXSP,2013-03-07 22:38:00,
2013-03-07 16:43:00,33.6,19.9,30.27,SSE,148,4.6,6.0,57,0.00,,,0.04,WUHU21623XXSP,2013-03-07 22:43:00,
2013-03-07 16:48:00,33.6,19.9,30.27,SSW,202,4.9,6.0,57,0.00,,,0.04,WUHU21623XXSP,2013-03-07 22:48:00,
2013-03-07 16:53:00,33.6,19.9,30.26,SSE,161,5.2,6.7,57,0.00,,,0.04,WUHU21623XXSP,2013-03-07 22:53:00,
2013-03-07 16:58:00,33.3,19.6,30.26,SE,140,4.4,6.7,57,0.00,,,0.04,WUHU21623XXSP,2013-03-07 22:58:00,
2013-03-07 17:03:00,32.9,19.3,30.26,SSE,157,5.4,6.9,57,0.00,,,0.04,WUHU21623XXSP,2013-03-07 23:03:00,
2013-03-07 17:08:00,32.7,18.7,30.25,SE,135,5.5,8.7,56,0.00,,,0.04,WUHU21623XXSP,2013-03-07 23:08:00,
2013-03-07 17:13:00,32.7,19.1,30.25,SSE,157,5.4,8.7,57,0.00,,,0.04,WUHU21623XXSP,2013-03-07 23:13:00,
2013-03-07 17:18:00,32.7,19.1,30.25,SSE,151,3.4,7.4,57,0.00,,,0.04,WUHU21623XXSP,2013-03-07 23:18:00,
2013-03-07 17:23:00,32.5,18.9,30.25,SSE,157,2.7,6.3,57,0.00,,,0.04,WUHU21623XXSP,2013-03-07 23:23:00,
2013-03-07 17:28:00,32.5,19.4,30.25,ESE,112,3.8,6.3,58,0.00,,,0.04,WUHU21623XXSP,2013-03-07 23:28:00,
2013-03-07 17:33:00,32.2,19.1,30.25,SSE,157,4.0,5.8,58,0.00,,,0.04,WUHU21623XXSP,2013-03-07 23:33:00,
2013-03-07 17:38:00,32.0,18.9,30.25,SSE,157,4.5,5.8,58,0.00,,,0.04,WUHU21623XXSP,2013-03-07 23:38:00,
2013-03-07 17:43:00,31.8,18.7,30.24,SE,134,2.6,5.8,58,0.00,,,0.04,WUHU21623XXSP,2013-03-07 23:43:00,
2013-03-07 17:48:00,31.6,19.0,30.24,SE,126,2.1,5.4,59,0.00,,,0.04,WUHU21623XXSP,2013-03-07 23:48:00,
2013-03-07 17:53:00,31.5,18.8,30.24,SE,134,3.5,4.9,59,0.00,,,0.04,WUHU21623XXSP,2013-03-07 23:53:00,
2013-03-07 17:58:00,31.3,18.6,30.24,ESE,112,3.1,5.8,59,0.00,,,0.04,WUHU21623XXSP,2013-03-07 23:58:00,
2013-03-07 18:03:00,31.1,18.9,30.24,SE,132,2.9,5.8,60,0.00,,,0.04,WUHU21623XXSP,2013-03-08 00:03:00,
2013-03-07 18:08:00,30.9,18.7,30.24,SSE,157,3.4,4.0,60,0.00,,,0.04,WUHU21623XXSP,2013-03-08 00:08:00,
2013-03-07 18:13:00,30.7,18.5,30.24,SE,135,3.1,4.0,60,0.00,,,0.04,WUHU21623XXSP,2013-03-08 00:13:00,
2013-03-07 18:18:00,30.6,18.3,30.24,SE,135,2.9,4.0,60,0.00,,,0.04,WUHU21623XXSP,2013-03-08 00:18:00,
2013-03-07 18:23:00,30.6,18.3,30.24,SE,135,3.7,6.0,60,0.00,,,0.04,WUHU21623XXSP,2013-03-08 00:23:00,
2013-03-07 18:28:00,30.4,18.5,30.23,SSE,157,3.4,6.0,61,0.00,,,0.04,WUHU21623XXSP,2013-03-08 00:28:00,
2013-03-07 18:33:00,30.2,18.3,30.23,SE,135,2.9,4.9,61,0.00,,,0.04,WUHU21623XXSP,2013-03-08 00:33:00,
2013-03-07 18:38:00,30.0,18.2,30.23,SE,142,2.7,5.1,61,0.00,,,0.04,WUHU21623XXSP,2013-03-08 00:38:00,
2013-03-07 18:43:00,30.0,18.2,30.23,SE,135,2.5,5.1,61,0.00,,,0.04,WUHU21623XXSP,2013-03-08 00:43:00,
2013-03-07 18:48:00,29.8,18.4,30.23,SSE,148,2.0,3.6,62,0.00,,,0.04,WUHU21623XXSP,2013-03-08 00:48:00,
2013-03-07 18:54:00,29.7,18.2,30.23,SSE,147,1.5,2.9,62,0.00,,,0.04,WUHU21623XXSP,2013-03-08 00:54:00,
2013-03-07 18:59:00,29.5,18.0,30.24,SE,135,3.1,3.6,62,0.00,,,0.04,WUHU21623XXSP,2013-03-08 00:59:00,
2013-03-07 19:04:00,29.5,18.4,30.24,SSE,151,2.2,4.7,63,0.00,,,0.04,WUHU21623XXSP,2013-03-08 01:04:00,
2013-03-07 19:09:00,29.3,18.2,30.24,SSE,155,2.1,4.7,63,0.00,,,0.04,WUHU21623XXSP,2013-03-08 01:09:00,
2013-03-07 19:14:00,29.1,18.1,30.24,SE,135,1.8,3.4,63,0.00,,,0.04,WUHU21623XXSP,2013-03-08 01:14:00,
2013-03-07 19:19:00,29.1,18.1,30.24,SSE,150,2.0,3.4,63,0.00,,,0.04,WUHU21623XXSP,2013-03-08 01:19:00,
2013-03-07 19:24:00,29.1,18.1,30.24,SE,144,2.6,4.0,63,0.00,,,0.04,WUHU21623XXSP,2013-03-08 01:24:00,
2013-03-07 19:29:00,28.9,17.9,30.24,SE,129,3.0,4.0,63,0.00,,,0.04,WUHU21623XXSP,2013-03-08 01:29:00,
2013-03-07 19:34:00,28.9,17.9,30.23,SE,137,2.2,3.8,63,0.00,,,0.04,WUHU21623XXSP,2013-03-08 01:34:00,
2013-03-07 19:39:00,28.8,18.1,30.24,SE,135,2.9,3.8,64,0.00,,,0.04,WUHU21623XXSP,2013-03-08 01:39:00,
2013-03-07 19:44:00,28.8,17.9,30.24,SSE,157,1.3,3.1,64,0.00,,,0.04,WUHU21623XXSP,2013-03-08 01:44:00,
2013-03-07 19:49:00,28.6,17.9,30.24,SSE,157,1.4,2.2,64,0.00,,,0.04,WUHU21623XXSP,2013-03-08 01:49:00,
2013-03-07 19:54:00,28.6,17.9,30.24,SSE,157,2.5,2.9,64,0.00,,,0.04,WUHU21623XXSP,2013-03-08 01:54:00,
2013-03-07 19:59:00,28.6,17.9,30.24,SE,126,1.1,2.9,64,0.00,,,0.04,WUHU21623XXSP,2013-03-08 01:59:00,
2013-03-07 20:04:00,28.2,17.6,30.24,ESE,112,1.3,2.7,64,0.00,,,0.04,WUHU21623XXSP,2013-03-08 02:04:00,
2013-03-07 20:09:00,28.2,17.6,30.24,ESE,112,0.9,1.6,64,0.00,,,0.04,WUHU21623XXSP,2013-03-08 02:09:00,
2013-03-07 20:14:00,28.0,17.4,30.24,East,90,0.0,1.6,64,0.00,,,0.04,WUHU21623XXSP,2013-03-08 02:14:00,
2013-03-07 20:19:00,28.0,17.4,30.23,ESE,112,0.8,1.6,64,0.00,,,0.04,WUHU21623XXSP,2013-03-08 02:19:00,
2013-03-07 20:24:00,27.7,17.4,30.24,SE,135,1.1,1.6,65,0.00,,,0.04,WUHU21623XXSP,2013-03-08 02:24:00,
2013-03-07 20:29:00,27.7,17.4,30.23,ESE,115,1.0,1.8,65,0.00,,,0.04,WUHU21623XXSP,2013-03-08 02:29:00,
2013-03-07 20:35:00,27.5,17.2,30.23,East,96,0.9,2.2,65,0.00,,,0.04,WUHU21623XXSP,2013-03-08 02:35:00,
2013-03-07 20:40:00,27.3,17.1,30.23,SE,135,1.1,2.2,65,0.00,,,0.04,WUHU21623XXSP,2013-03-08 02:40:00,
2013-03-07 20:45:00,27.3,17.1,30.23,ESE,112,0.7,2.0,65,0.00,,,0.04,WUHU21623XXSP,2013-03-08 02:45:00,
2013-03-07 20:50:00,27.1,16.9,30.23,SE,135,1.3,2.2,65,0.00,,,0.04,WUHU21623XXSP,2013-03-08 02:50:00,
2013-03-07 20:55:00,27.1,16.9,30.23,SSE,157,2.2,2.9,65,0.00,,,0.04,WUHU21623XXSP,2013-03-08 02:55:00,
2013-03-07 21:00:00,27.1,17.2,30.22,SSE,157,2.0,3.1,66,0.00,,,0.04,WUHU21623XXSP,2013-03-08 03:00:00,
2013-03-07 21:05:00,27.0,17.1,30.23,SE,142,2.0,3.1,66,0.00,,,0.04,WUHU21623XXSP,2013-03-08 03:05:00,
2013-03-07 21:10:00,27.0,17.1,30.23,SE,132,1.3,2.9,66,0.00,,,0.04,WUHU21623XXSP,2013-03-08 03:10:00,
2013-03-07 21:15:00,27.0,17.1,30.23,SE,139,1.3,2.0,66,0.00,,,0.04,WUHU21623XXSP,2013-03-08 03:15:00,
2013-03-07 21:20:00,26.8,16.9,30.23,SE,141,1.2,2.0,66,0.00,,,0.04,WUHU21623XXSP,2013-03-08 03:20:00,
2013-03-07 21:25:00,26.6,16.7,30.24,ESE,112,0.0,1.6,66,0.00,,,0.04,WUHU21623XXSP,2013-03-08 03:25:00,
2013-03-07 21:30:00,26.4,16.5,30.23,SE,135,0.0,0.9,66,0.00,,,0.04,WUHU21623XXSP,2013-03-08 03:30:00,
2013-03-07 21:35:00,26.2,16.3,30.24,SE,135,1.6,1.6,66,0.00,,,0.04,WUHU21623XXSP,2013-03-08 03:35:00,
2013-03-07 21:41:00,26.1,16.2,30.23,SSE,157,0.0,1.6,66,0.00,,,0.04,WUHU21623XXSP,2013-03-08 03:41:00,
2013-03-07 21:46:00,25.5,15.7,30.24,SE,135,0.0,0.0,66,0.00,,,0.04,WUHU21623XXSP,2013-03-08 03:46:00,
2013-03-07 21:51:00,25.3,15.5,30.24,SSE,157,0.0,0.0,66,0.00,,,0.04,WUHU21623XXSP,2013-03-08 03:51:00,
2013-03-07 21:56:00,25.3,15.5,30.24,ENE,67,0.0,0.0,66,0.00,,,0.04,WUHU21623XXSP,2013-03-08 03:56:00,
2013-03-07 22:01:00,25.0,15.1,30.24,ENE,67,0.0,0.0,66,0.00,,,0.04,WUHU21623XXSP,2013-03-08 04:01:00,
2013-03-07 22:06:00,25.0,15.1,30.25,North,0,0.0,0.0,66,0.00,,,0.04,WUHU21623XXSP,2013-03-08 04:06:00,
2013-03-07 22:12:00,24.6,14.8,30.25,North,0,0.0,0.0,66,0.00,,,0.04,WUHU21623XXSP,2013-03-08 04:12:00,
2013-03-07 22:17:00,24.4,14.6,30.25,North,0,0.0,0.0,66,0.00,,,0.04,WUHU21623XXSP,2013-03-08 04:17:00,
2013-03-07 22:22:00,24.4,15.0,30.25,North,0,0.0,0.0,67,0.00,,,0.04,WUHU21623XXSP,2013-03-08 04:22:00,
2013-03-07 22:27:00,24.1,14.3,30.25,SE,135,0.0,0.0,66,0.00,,,0.04,WUHU21623XXSP,2013-03-08 04:27:00,
2013-03-07 22:32:00,23.5,13.8,30.25,ESE,112,0.0,0.0,66,0.00,,,0.04,WUHU21623XXSP,2013-03-08 04:32:00,
2013-03-07 22:37:00,23.0,13.3,30.25,ESE,112,0.0,0.0,66,0.00,,,0.04,WUHU21623XXSP,2013-03-08 04:37:00,
2013-03-07 22:42:00,22.8,13.1,30.25,ENE,67,0.0,0.0,66,0.00,,,0.04,WUHU21623XXSP,2013-03-08 04:42:00,
2013-03-07 22:47:00,22.3,12.6,30.26,ENE,67,0.0,0.0,66,0.00,,,0.04,WUHU21623XXSP,2013-03-08 04:47:00,
2013-03-07 22:52:00,21.9,12.6,30.26,ENE,67,0.0,0.0,67,0.00,,,0.04,WUHU21623XXSP,2013-03-08 04:52:00,
2013-03-07 22:57:00,21.9,12.6,30.26,NNE,22,0.0,0.0,67,0.00,,,0.04,WUHU21623XXSP,2013-03-08 04:57:00,
2013-03-07 23:00:00,21.7,12.4,30.26,NNE,22,0.0,0.0,67,0.00,,,0.04,WUHU21623XXSP,2013-03-08 05:00:00,
2013-03-07 23:01:00,21.7,12.4,30.26,NNE,22,0.0,0.0,67,0.00,,,0.04,WUHU21623XXSP,2013-03-08 05:01:00,
2013-03-07 23:06:00,21.7,12.4,30.26,NNE,22,0.0,0.0,67,0.00,,,0.04,WUHU21623XXSP,2013-03-08 05:06:00,
2013-03-07 23:11:00,21.6,12.2,30.27,NNE,22,0.0,0.0,67,0.00,,,0.04,WUHU21623XXSP,2013-03-08 05:11:00,
2013-03-07 23:16:00,21.4,12.1,30.26,NNE,22,0.0,0.0,67,0.00,,,0.04,WUHU21623XXSP,2013-03-08 05:16:00,
2013-03-07 23:21:00,21.0,11.7,30.27,NNE,22,0.0,0.0,67,0.00,,,0.04,WUHU21623XXSP,2013-03-08 05:21:00,
2013-03-07 23:26:00,20.8,11.9,30.27,NNE,22,0.0,0.0,68,0.00,,,0.04,WUHU21623XXSP,2013-03-08 05:26:00,
2013-03-07 23:31:00,20.5,11.2,30.27,NNE,22,0.0,0.0,67,0.00,,,0.04,WUHU21623XXSP,2013-03-08 05:31:00,
2013-03-07 23:36:00,20.3,11.0,30.27,NE,45,0.0,0.0,67,0.00,,,0.04,WUHU21623XXSP,2013-03-08 05:36:00,
2013-03-07 23:41:00,19.9,11.0,30.27,SSE,157,0.0,0.0,68,0.00,,,0.04,WUHU21623XXSP,2013-03-08 05:41:00,
2013-03-07 23:46:00,19.6,10.6,30.27,SSE,157,0.0,0.0,68,0.00,,,0.04,WUHU21623XXSP,2013-03-08 05:46:00,
2013-03-07 23:51:00,19.4,10.4,30.27,SE,135,0.0,0.0,68,0.00,,,0.04,WUHU21623XXSP,2013-03-08 05:51:00,
2013-03-07 23:56:00,19.2,10.3,30.27,SE,135,0.9,0.9,68,0.00,,,0.04,WUHU21623XXSP,2013-03-08 05:56:00,